Weather History for KPVD - May, 2012

Change the Weather History Date:

Thursday, May 31, 2012

  Actual Average Record
Temperature  
Mean Temperature 70 °F 63 °F  
Max Temperature 81 °F 73 °F 95 °F (1944)
Min Temperature 59 °F 53 °F 37 °F (1961)
Degree Days  
Heating Degree Days 0 4  
Month to date heating degree days 147 225  
Since 1 July heating degree days 4544 5575  
Cooling Degree Days 5 2  
Month to date cooling degree days 47 24  
Year to date cooling degree days 55 26  
Growing Degree Days 20 (Base 50)    
Moisture  
Dew Point 53 °F    
Average Humidity 63    
Maximum Humidity 93    
Minimum Humidity 32    
Precipitation  
Precipitation 0.00 in 0.13 in 5.15 in (1984)
Month to date precipitation 4.24 3.55  
Year to date precipitation 13.94 20.07  
Snow  
Snow 0.00 in 0.00 in 0.00 in (2002)
Month to date snowfall 0.0 0.0  
Since 1 July snowfall 17.8 33.8  
Snow Depth 0.00 in    
Sea Level Pressure  
Sea Level Pressure 29.77 in    
Wind  
Wind Speed 6 mph (NW)    
Max Wind Speed 15 mph    
Max Gust Speed 20 mph    
Visibility 10 miles    
Events      
T = Trace of Precipitation, MM = Missing Value Source: NWS Daily Summary

Daily Weather History Graph

Daily Weather History Graph

Search for Another Location

Airport or City:

Trip Planner

Search our weather history database for the weather conditions in past years. The results will help you decide how hot, cold, wet, or windy it might be!

Date:

Astronomy

May. 31, 2012 Rise Set
Actual Time 5:13 AM EDT 8:13 PM EDT
Civil Twilight 4:40 AM EDT 8:46 PM EDT
Nautical Twilight 3:58 AM EDT 9:29 PM EDT
Astronomical Twilight 3:08 AM EDT 10:19 PM EDT
Moon 3:56 PM EDT (5/31) 2:13 AM EDT (5/31)
Length of Visible Light 16h 06m
Length of Day
14h 59m
Waxing Gibbous, 80% of the Moon is Illuminated
May 31
Waxing Gibbous
Jun 4
Full
Jun 11
Last Quarter
Jun 19
New
Jun 26
First Quarter

Hourly Weather History & Observations

Time (EDT) Temp. Dew Point Humidity Pressure Visibility Wind Dir Wind Speed Gust Speed Precip Events Conditions
12:51 AM 63.0 °F 60.1 °F 90% 29.74 in 10.0 mi Calm Calm - N/A   Mostly Cloudy
1:51 AM 63.0 °F 60.1 °F 90% 29.73 in 10.0 mi Calm Calm - N/A   Mostly Cloudy
2:51 AM 62.1 °F 59.0 °F 90% 29.72 in 10.0 mi Calm Calm - N/A   Mostly Cloudy
3:51 AM 60.1 °F 57.9 °F 93% 29.73 in 9.0 mi South 3.5 mph - N/A   Mostly Cloudy
4:51 AM 60.1 °F 57.9 °F 93% 29.72 in 9.0 mi Calm Calm - N/A   Mostly Cloudy
5:51 AM 60.1 °F 57.9 °F 93% 29.73 in 8.0 mi Calm Calm - N/A   Mostly Cloudy
6:51 AM 64.0 °F 60.1 °F 87% 29.74 in 10.0 mi West 3.5 mph - N/A   Mostly Cloudy
7:51 AM 71.1 °F 57.9 °F 63% 29.75 in 10.0 mi NNW 5.8 mph - N/A   Mostly Cloudy
8:51 AM 73.0 °F 57.0 °F 57% 29.77 in 10.0 mi North 10.4 mph - N/A   Scattered Clouds
9:51 AM 75.0 °F 54.0 °F 48% 29.75 in 10.0 mi North 11.5 mph - N/A   Scattered Clouds
10:51 AM 77.0 °F 52.0 °F 42% 29.75 in 10.0 mi North 5.8 mph - N/A   Partly Cloudy
11:51 AM 79.0 °F 53.1 °F 40% 29.75 in 10.0 mi WNW 10.4 mph - N/A   Scattered Clouds
12:51 PM 81.0 °F 48.9 °F 33% 29.75 in 10.0 mi NNW 9.2 mph 18.4 mph N/A   Scattered Clouds
1:51 PM 80.1 °F 48.9 °F 34% 29.75 in 10.0 mi WNW 10.4 mph - N/A   Scattered Clouds
2:51 PM 80.1 °F 48.0 °F 32% 29.75 in 10.0 mi WNW 5.8 mph - N/A   Scattered Clouds
3:51 PM 79.0 °F 46.9 °F 32% 29.76 in 10.0 mi NNW 8.1 mph 18.4 mph N/A   Scattered Clouds
4:51 PM 80.1 °F 48.9 °F 34% 29.77 in 10.0 mi NW 9.2 mph - N/A   Partly Cloudy
5:51 PM 80.1 °F 48.9 °F 34% 29.77 in 10.0 mi NW 8.1 mph - N/A   Partly Cloudy
6:51 PM 78.1 °F 48.0 °F 35% 29.79 in 10.0 mi NW 8.1 mph - N/A   Partly Cloudy
7:51 PM 75.0 °F 48.0 °F 38% 29.81 in 10.0 mi NW 6.9 mph - N/A   Partly Cloudy
8:51 PM 73.0 °F 48.0 °F 41% 29.83 in 10.0 mi NNW 5.8 mph - N/A   Partly Cloudy
9:51 PM 70.0 °F 48.0 °F 46% 29.86 in 10.0 mi NW 5.8 mph - N/A   Partly Cloudy
10:51 PM 69.1 °F 48.9 °F 49% 29.88 in 10.0 mi WNW 5.8 mph - N/A   Partly Cloudy
11:51 PM 68.0 °F 50.0 °F 52% 29.90 in 10.0 mi NW 9.2 mph - N/A   Partly Cloudy